Lid_Strength_Index
0 0 0 1 0 0 1 1 0 0 1 0 0 0 0 0 0 0 0 0 1 1 0 1 1 0 1 1 1 1 1 2 4 2 1 0 0 0 -0 -1 -1 -1 -0
1 0 0 0 1 1 1 1 -0 0 -0 0 0 0 0 1 -0 0 1 0 0 1 0 0 1 0 0 0 1 1 1 1 2 3 1 1 1 -0 -0 0 0 -0 -0
0 1 0 0 1 1 1 0 0 0 0 -0 -0 0 1 1 0 0 0 1 0 0 0 0 0 0 0 0 0 1 0 1 1 2 2 1 1 0 0 0 0 -0 -0
1 1 1 1 1 1 0 0 0 1 1 0 -0 0 0 0 0 0 0 0 0 0 -0 -0 0 -0 -0 0 0 -0 0 1 1 1 2 2 1 0 0 2 2 1 1
1 1 1 0 0 1 1 1 0 0 0 1 0 0 0 0 1 0 1 1 0 0 0 -0 -0 -0 0 -0 0 -0 -0 1 1 2 2 2 2 2 2 1 2 1 1
1 1 1 1 0 1 1 1 1 0 0 0 0 1 1 1 4 4 1 1 0 1 1 0 -0 0 0 2 1 2 1 1 2 2 2 2 2 2 1 2 2 3 4
1 1 1 1 1 1 1 1 2 1 0 1 1 0 1 0 5 7 5 0 1 1 1 1 1 0 1 -0 3 3 2 4 3 1 2 2 2 1 1 2 2 2 3
1 1 1 1 1 1 1 1 1 1 1 1 1 1 1 1 5 8 6 0 1 0 0 0 1 0 0 0 0 0 0 -0 -0 0 0 1 0 -0 0 1 1 1 1
2 1 1 1 1 1 1 1 1 1 2 2 1 1 1 1 5 8 6 1 1 1 0 0 0 1 3 7 0 1 1 0 1 4 4 4 6 7 5 1 2 3 4
3 2 1 1 1 2 1 1 1 1 1 1 1 1 2 1 4 7 6 1 1 1 1 0 5 1 6 9 1 1 2 1 0 0 -0 1 4 1 6 3 2 4 4
4 3 3 2 1 1 1 1 1 1 1 1 1 1 1 1 1 8 8 1 1 2 2 1 1 7 8 10 7 1 2 0 1 0 1 1 0 0 0 0 1 1 3
5 5 5 4 4 4 2 2 2 2 2 2 2 2 1 1 3 6 8 8 3 1 2 1 1 8 8 9 7 5 6 6 1 1 1 1 1 1 0 1 0 -0 0
6 6 6 6 5 4 5 4 3 2 3 2 2 2 2 1 1 5 7 8 8 2 1 2 5 9 8 7 8 7 8 1 1 2 2 2 1 0 0 0 1 -0 0
7 7 7 6 6 5 5 6 6 5 4 4 3 3 2 2 1 1 1 2 6 4 2 1 2 4 5 3 3 5 1 1 1 2 2 1 1 1 1 1 2 2 2
7 7 7 7 7 7 6 5 6 5 6 6 5 3 3 2 2 4 3 1 1 2 2 1 1 2 2 1 1 1 1 1 1 1 2 2 2 1 2 1 2 2 3
8 8 8 8 8 9 8 8 8 8 8 8 8 7 4 6 8 8 8 8 8 7 2 2 2 2 2 2 2 2 1 2 1 1 1 1 2 2 2 2 2 3 3
11 11 11 10 10 10 10 10 10 9 10 10 10 10 9 8 8 9 9 9 8 8 2 2 2 2 2 2 2 2 2 1 1 1 1 1 2 2 3 3 3 3 3
12 12 12 12 11 11 11 11 11 11 11 10 10 10 10 10 10 9 10 9 5 6 3 2 2 2 2 2 2 2 1 1 1 1 1 1 1 2 3 3 3 3 3
13 13 13 13 12 11 11 11 12 11 11 11 9 9 10 10 10 10 11 7 6 4 3 2 1 1 1 1 1 1 1 1 1 1 1 1 2 2 3 3 3 8 5
13 14 14 13 14 14 12 11 11 11 10 10 10 10 8 10 9 9 9 8 6 5 3 2 1 1 1 1 1 1 1 1 1 1 2 1 2 2 3 3 3 3 3
14 14 15 14 14 13 12 12 12 11 10 10 10 9 10 8 8 8 9 7 5 4 3 2 2 2 1 1 1 1 2 1 1 1 1 2 2 2 2 2 2 2 2
15 14 13 12 12 11 11 10 10 10 9 9 8 8 12 8 7 7 8 7 6 4 3 2 2 1 1 1 1 1 2 1 1 1 1 2 2 2 2 2 2 2 2
14 13 13 11 8 9 7 7 5 7 7 7 7 9 9 7 7 7 7 6 5 4 3 2 2 1 1 0 1 1 1 1 1 1 1 2 2 2 2 2 2 2 3
11 10 9 8 9 8 7 7 6 8 7 7 7 7 7 7 7 7 6 5 5 4 3 2 2 1 1 1 1 0 0 -0 0 0 1 1 2 3 2 2 2 2 2
9 10 10 11 11 10 9 10 9 9 8 7 6 6 7 6 6 5 4 4 4 3 2 2 1 0 1 0 0 0 3 12 2 5 1 1 2 2 2 2 2 2 2
9 10 11 11 12 12 11 11 11 11 10 10 8 7 5 5 4 3 2 2 2 1 1 0 0 1 1 1 2 6 13 12 8 11 1 1 2 1 1 2 2 2 2